Wind_Speed
10 11 11 11 12 12 13 15 16 18 20 21 21 22 23 18 19 19 19 14 10 11 8 8 9 11 10 9 6 8 11 10 8 7 9 8 12 5 4 3 4 5 1 6 9 10 11
9 10 10 10 11 12 13 14 16 18 20 22 22 21 22 19 17 19 18 13 9 8 7 7 9 8 6 6 7 8 11 8 8 7 10 12 8 8 8 4 4 2 4 10 7 7 7
9 9 9 9 11 12 13 15 17 19 21 23 23 23 22 20 18 20 18 11 7 8 7 9 13 15 14 8 7 9 11 8 8 7 8 9 8 4 5 4 5 6 4 1 4 4 3
8 9 10 10 10 11 12 14 16 19 20 22 23 24 23 23 18 19 17 8 6 6 8 9 7 6 7 7 7 8 10 6 5 5 4 6 6 8 4 7 4 3 4 1 3 8 2
9 9 9 9 10 11 13 15 17 19 21 22 23 25 23 23 19 18 16 7 6 8 7 8 5 4 4 5 6 9 11 4 3 4 5 3 3 5 4 3 4 6 2 2 4 4 4
8 8 8 9 10 12 14 16 17 20 22 22 21 24 24 23 21 21 12 12 15 9 8 9 7 4 7 5 4 7 11 4 3 1 1 3 4 4 4 5 1 3 3 3 4 3 3
6 6 8 9 10 12 14 17 19 21 22 23 22 23 24 22 20 23 10 7 3 6 17 10 8 8 8 5 5 8 13 3 3 5 4 6 6 2 2 2 3 1 2 4 4 1 2
5 7 9 11 13 15 16 18 20 20 23 23 22 21 21 20 14 21 13 5 6 7 8 9 7 6 7 9 3 12 14 4 5 3 2 5 2 1 1 2 2 3 2 4 4 2 3
7 11 13 14 16 19 22 23 21 21 22 23 21 19 18 19 9 18 22 8 6 3 3 5 8 7 7 7 6 11 12 4 4 3 3 4 2 0 0 2 5 3 3 3 4 2 1
11 13 16 17 17 20 23 25 24 20 21 21 19 19 17 17 7 18 22 11 2 2 4 8 7 7 8 4 3 10 10 4 4 2 1 0 2 1 1 2 3 4 2 3 5 3 3
15 14 16 18 21 23 23 23 22 21 20 17 16 18 17 13 10 14 16 9 2 2 4 5 5 7 6 5 5 9 8 4 2 3 3 2 3 3 2 1 4 6 2 3 2 2 2
18 17 19 21 22 22 22 21 21 20 16 15 15 16 14 11 9 13 16 4 3 5 2 4 4 8 5 8 7 12 6 6 3 2 3 1 3 2 2 2 2 4 2 3 3 1 1
18 20 23 23 22 22 21 19 18 16 14 14 15 15 13 10 10 15 14 2 5 6 2 6 4 5 1 6 6 9 6 7 5 5 7 6 2 3 2 3 1 7 5 3 4 3 4
20 22 24 23 21 19 17 16 15 14 14 14 14 13 9 9 11 16 10 4 7 1 2 2 3 3 4 6 4 8 3 5 5 5 2 5 6 3 4 2 2 3 2 2 4 3 5
24 25 23 21 18 16 14 12 12 13 14 14 14 10 7 10 12 13 3 6 2 2 2 4 2 5 5 4 3 6 4 2 1 4 3 5 5 3 2 2 2 2 2 1 2 1 1
24 24 21 17 14 12 12 12 12 13 14 15 15 5 9 12 11 6 5 4 2 1 1 0 3 2 3 5 6 5 3 1 2 2 1 0 5 1 3 0 2 1 2 2 2 5 5
24 22 18 14 12 10 10 11 11 12 12 13 11 2 9 11 6 5 4 1 0 0 2 3 1 1 1 2 1 3 3 2 1 2 2 2 3 5 2 2 3 1 1 1 1 2 2
22 19 17 13 9 9 10 9 9 9 10 11 6 2 9 8 4 4 2 0 0 1 2 1 2 1 1 1 2 2 2 2 2 1 2 1 3 4 8 1 1 2 3 4 3 4 3
20 16 14 11 10 9 9 9 9 10 11 12 5 4 8 5 3 2 2 1 1 1 2 2 1 1 2 2 2 3 3 3 3 4 3 3 1 4 7 1 1 3 4 3 2 1 7
19 16 13 11 9 8 7 7 8 8 8 8 4 3 5 8 7 4 3 2 2 2 1 0 1 1 0 2 2 3 2 2 1 3 2 5 2 6 7 5 2 10 7 5 6 4 6
18 16 14 11 9 8 6 6 7 6 6 5 5 2 2 2 4 3 1 1 1 2 1 1 1 3 4 2 3 3 4 3 4 3 4 4 5 6 11 10 10 20 18 12 14 19 9
17 16 15 13 11 9 7 6 5 4 3 3 2 2 3 2 2 1 2 1 1 3 2 1 2 1 3 5 7 9 4 4 6 1 4 2 3 4 8 11 8 11 14 14 17 18 16
17 16 15 13 12 10 8 6 4 3 2 2 3 2 0 1 2 2 2 2 2 0 3 4 3 2 4 12 20 21 19 19 13 6 5 4 2 2 5 0 6 9 10 6 3 5 5
19 17 16 14 13 11 9 7 6 5 3 2 2 2 1 1 1 3 2 4 4 5 4 5 8 3 6 10 16 22 23 23 13 13 12 2 2 2 5 5 2 4 1 3 7 7 10
21 19 18 16 14 12 10 9 9 7 7 6 6 5 3 3 7 5 9 8 9 11 8 14 20 17 14 9 3 5 4 3 2 5 1 7 4 3 3 3 8 6 3 4 4 6 4
22 21 20 18 16 14 13 12 10 10 10 12 13 11 8 3 7 16 5 6 4 3 3 7 9 7 5 3 2 3 3 1 4 2 4 3 1 3 1 4 6 5 2 3 3 5 4
24 22 21 20 18 16 14 13 12 12 12 13 15 16 14 8 12 14 8 5 6 4 3 3 2 1 6 2 2 4 4 1 3 4 4 3 2 9 7 5 8 5 7 6 3 6 4
27 25 24 23 21 19 16 14 13 13 13 13 16 17 18 9 16 17 17 15 11 6 3 5 0 3 2 2 3 4 4 4 1 4 5 7 6 5 2 4 10 14 8 7 4 2 5
30 28 27 25 22 20 19 16 14 13 13 16 19 19 18 22 16 13 14 20 25 25 23 9 4 5 9 3 2 1 4 3 5 7 0 3 8 4 10 8 1 24 10 14 11 8 9
Wind_Direction
75 72 70 71 67 61 54 45 36 29 24 21 17 14 10 9 8 6 9 8 8 26 50 79 108 117 117 94 58 26 13 14 27 43 59 54 50 65 80 66 60 71 67 65 124 134 115
75 72 70 67 65 58 48 37 31 23 18 15 13 11 11 6 4 2 2 9 10 28 64 94 114 121 129 86 44 33 16 24 33 59 61 58 60 84 93 71 73 33 84 117 126 120 141
80 76 75 67 58 50 40 30 22 16 12 9 7 7 7 4 355 354 357 9 27 39 76 104 106 108 93 79 57 31 20 39 46 62 64 57 57 93 120 113 100 127 89 74 168 177 142
82 77 71 64 52 39 30 22 16 11 7 3 2 2 4 4 357 355 356 26 43 68 92 119 116 104 74 54 53 33 22 33 46 54 69 63 60 76 67 118 55 69 57 53 198 166 166
75 68 60 50 36 24 15 9 6 4 360 358 359 359 2 2 6 4 359 62 53 100 96 105 99 95 61 28 28 21 12 21 47 59 68 58 60 70 70 69 29 9 242 229 295 184 128
64 53 40 29 18 9 3 359 356 355 353 351 353 357 2 6 10 10 25 93 81 101 99 85 72 78 35 353 19 14 7 30 34 58 63 44 51 66 38 50 309 285 314 274 253 207 171
46 31 19 5 357 351 347 344 343 344 347 349 353 355 359 4 13 14 23 144 97 87 73 79 77 94 39 19 52 17 8 12 39 55 40 19 66 22 302 181 156 215 230 252 262 247 255
5 354 344 339 337 337 338 336 335 337 342 343 346 351 355 2 14 20 29 103 103 124 78 62 63 44 23 20 63 20 9 33 43 54 358 26 78 257 184 149 174 212 258 269 274 202 230
337 340 329 322 324 328 331 331 331 330 335 338 342 348 354 356 5 17 28 69 109 98 83 33 28 20 11 15 32 6 14 32 61 52 29 131 198 234 296 340 4 303 216 268 258 297 200
316 325 326 326 324 327 328 329 333 330 332 336 340 343 352 359 9 6 17 21 131 85 74 328 2 12 356 14 41 12 10 20 39 70 60 33 315 15 324 259 129 298 216 266 280 333 269
314 319 321 322 320 322 326 327 329 333 334 337 343 344 349 3 2 10 1 6 117 100 45 319 339 345 10 51 327 3 4 20 68 356 74 307 357 345 305 265 167 238 295 253 249 222 5
311 317 319 319 318 319 321 324 328 333 338 341 345 346 350 356 3 4 357 20 103 47 275 350 350 355 19 18 11 345 9 26 59 84 3 275 291 237 275 334 191 300 304 50 54 84 331
308 313 315 315 315 316 320 323 328 336 341 344 346 348 349 359 358 356 354 93 44 94 332 330 336 11 26 340 350 21 20 12 34 22 6 337 313 305 339 345 17 27 27 346 359 2 244
302 309 311 310 312 313 320 323 330 336 342 349 348 349 5 14 359 352 356 59 70 238 360 347 355 327 52 7 17 349 32 21 24 50 51 21 335 358 350 58 301 7 70 108 308 302 295
302 306 307 306 308 312 318 322 330 337 342 349 351 357 28 4 350 346 6 51 168 201 259 355 352 51 345 9 17 23 26 14 301 31 40 7 285 317 12 1 83 10 22 201 268 259 356
300 302 300 300 302 310 318 324 331 339 345 350 355 24 20 356 354 3 69 146 182 218 8 100 74 46 347 324 21 33 349 277 359 71 64 232 300 271 290 46 50 123 164 346 26 324 302
296 294 290 291 296 305 314 322 331 341 346 350 354 18 3 353 4 43 93 170 182 80 27 48 152 27 36 320 328 308 290 303 28 26 69 126 133 287 334 196 181 33 318 72 148 168 263
287 286 283 282 288 301 308 314 321 333 345 349 355 30 359 352 43 47 84 182 11 44 43 69 98 104 203 295 281 277 274 262 352 40 14 10 163 280 243 237 347 201 226 170 140 265 237
274 271 269 270 283 293 305 314 329 338 350 357 4 7 11 27 82 27 346 48 49 43 25 58 114 219 202 236 283 213 243 222 229 180 151 167 273 318 327 37 63 227 214 196 100 81 212
266 260 252 259 267 282 301 318 331 340 348 0 4 28 37 58 77 104 31 22 351 23 47 221 188 168 151 281 242 291 289 283 243 241 250 184 188 198 241 256 281 269 238 212 197 232 250
254 249 252 256 262 271 289 307 319 332 350 8 30 66 50 357 28 79 84 46 343 322 133 214 263 225 190 256 286 246 234 287 265 238 171 184 232 209 259 261 261 269 271 249 228 246 239
243 243 245 245 247 255 266 280 297 316 7 32 37 114 96 102 83 66 6 161 193 304 210 229 204 314 220 225 207 270 242 187 234 175 177 194 262 212 269 253 261 268 264 250 242 250 249
237 238 242 246 249 251 253 256 274 300 341 78 84 91 87 127 108 107 222 177 206 119 255 236 212 318 263 253 266 275 274 259 248 188 195 206 232 315 263 68 295 284 258 208 201 203 185
232 232 234 235 238 240 247 257 263 269 239 203 147 107 52 288 174 204 210 223 234 238 243 254 248 221 268 288 293 287 271 267 254 239 224 209 185 224 285 340 287 279 176 229 218 255 219
231 230 229 230 232 237 243 250 261 267 249 228 212 205 207 234 225 223 237 239 271 273 247 252 268 263 269 300 315 318 321 315 69 31 266 215 163 260 264 247 287 264 166 148 174 277 245
230 227 227 228 231 238 243 248 252 257 244 234 228 230 222 231 230 245 222 231 230 226 276 245 268 255 213 198 157 251 250 270 289 235 39 93 137 186 169 251 270 250 148 155 127 282 7
231 228 230 232 233 236 242 246 248 248 247 238 235 234 238 239 255 235 234 212 260 211 248 284 261 205 201 173 217 234 239 145 233 225 170 123 187 220 224 251 275 249 155 142 109 302 343
231 229 228 234 233 231 232 237 244 248 248 241 254 236 242 259 263 255 240 263 227 225 246 214 143 212 150 209 209 241 223 213 199 207 193 187 183 209 197 222 271 160 126 191 205 197 246
232 234 229 228 232 234 237 235 233 245 255 245 241 254 246 252 260 255 256 245 250 258 257 218 223 211 212 212 223 252 235 204 219 272 32 238 196 203 197 222 267 195 230 220 245 227 242
Height
1585 1585 1584 1583 1582 1581 1580 1578 1576 1574 1571 1568 1565 1561 1558 1554 1551 1548 1544 1541 1539 1537 1537 1536 1537 1539 1540 1541 1544 1543 1541 1540 1539 1538 1536 1535 1534 1536 1540 1542 1542 1545 1547 1549 1550 1551 1551
1587 1587 1586 1585 1585 1584 1582 1580 1578 1576 1573 1570 1566 1563 1559 1554 1551 1547 1544 1541 1539 1538 1537 1537 1538 1539 1539 1542 1543 1542 1541 1540 1539 1538 1538 1537 1537 1537 1540 1543 1545 1547 1548 1551 1552 1553 1553
1589 1588 1588 1587 1586 1585 1584 1582 1579 1577 1573 1570 1566 1563 1559 1555 1551 1547 1544 1541 1540 1539 1539 1538 1539 1540 1540 1545 1543 1543 1541 1540 1539 1539 1538 1538 1538 1538 1540 1543 1545 1546 1549 1551 1552 1553 1555
1591 1590 1590 1589 1588 1586 1585 1583 1580 1577 1574 1571 1567 1563 1559 1555 1551 1547 1543 1540 1540 1540 1540 1540 1541 1541 1543 1545 1544 1544 1542 1540 1539 1539 1539 1539 1539 1539 1541 1545 1546 1549 1551 1554 1550 1550 1552
1592 1592 1592 1591 1589 1588 1586 1583 1581 1578 1574 1571 1567 1563 1559 1555 1551 1547 1543 1541 1540 1541 1541 1541 1542 1541 1545 1546 1545 1544 1542 1541 1540 1540 1540 1539 1540 1542 1544 1548 1553 1555 1553 1553 1549 1548 1550
1594 1594 1593 1592 1590 1589 1587 1584 1581 1578 1575 1571 1567 1563 1559 1556 1552 1547 1543 1543 1541 1542 1543 1542 1543 1545 1547 1547 1545 1544 1543 1541 1541 1540 1541 1541 1541 1545 1550 1552 1559 1556 1556 1554 1553 1548 1548
1596 1595 1594 1592 1591 1589 1587 1584 1581 1578 1574 1571 1567 1563 1559 1556 1553 1548 1544 1544 1546 1547 1544 1545 1547 1547 1547 1547 1546 1545 1543 1542 1542 1542 1546 1543 1549 1553 1552 1552 1552 1554 1556 1556 1550 1546 1546
1596 1595 1594 1592 1591 1588 1586 1583 1580 1577 1574 1570 1566 1563 1560 1557 1554 1551 1546 1544 1546 1549 1549 1548 1548 1549 1548 1547 1546 1546 1544 1544 1543 1547 1545 1549 1552 1549 1549 1550 1551 1552 1553 1552 1547 1546 1547
1595 1594 1593 1592 1590 1587 1585 1582 1580 1577 1573 1569 1566 1563 1559 1556 1554 1552 1549 1548 1548 1549 1549 1551 1550 1550 1551 1550 1549 1548 1546 1545 1545 1547 1549 1551 1549 1547 1548 1549 1550 1551 1551 1549 1549 1545 1547
1595 1594 1592 1590 1588 1586 1583 1580 1578 1575 1572 1568 1565 1561 1558 1555 1555 1552 1550 1550 1550 1550 1559 1558 1553 1553 1552 1549 1551 1549 1547 1548 1546 1549 1549 1550 1549 1548 1548 1548 1551 1552 1548 1548 1547 1546 1546
1592 1592 1590 1589 1586 1584 1581 1579 1576 1573 1571 1567 1564 1561 1558 1556 1556 1554 1554 1550 1550 1552 1585 1561 1556 1554 1552 1552 1553 1550 1549 1547 1549 1550 1552 1551 1550 1549 1548 1547 1549 1549 1547 1546 1545 1548 1550
1591 1590 1588 1587 1584 1581 1579 1577 1574 1572 1569 1566 1564 1561 1558 1557 1555 1555 1552 1550 1551 1564 1585 1562 1558 1557 1555 1555 1554 1551 1550 1550 1550 1550 1550 1550 1549 1549 1547 1547 1547 1546 1545 1547 1550 1550 1550
1589 1588 1586 1584 1582 1579 1577 1575 1572 1570 1568 1565 1562 1560 1557 1556 1556 1553 1551 1551 1563 1576 1565 1567 1566 1563 1564 1563 1558 1557 1558 1560 1562 1562 1564 1556 1550 1549 1548 1548 1547 1548 1550 1551 1549 1548 1542
1587 1585 1583 1582 1579 1577 1575 1573 1571 1569 1566 1564 1561 1559 1557 1556 1555 1553 1551 1553 1568 1570 1569 1568 1567 1564 1565 1566 1564 1563 1561 1567 1563 1565 1573 1571 1562 1552 1550 1550 1552 1553 1555 1560 1557 1553 1546
1584 1582 1580 1579 1577 1575 1573 1571 1569 1567 1565 1563 1560 1558 1557 1555 1554 1552 1552 1572 1573 1571 1569 1569 1567 1570 1569 1568 1567 1565 1567 1568 1566 1565 1569 1572 1562 1552 1552 1551 1553 1553 1557 1558 1558 1560 1563
1581 1579 1578 1576 1575 1573 1572 1571 1569 1567 1565 1562 1559 1557 1557 1556 1553 1552 1554 1570 1570 1569 1569 1568 1570 1571 1572 1572 1570 1571 1569 1565 1564 1564 1564 1567 1571 1554 1553 1552 1553 1553 1557 1557 1563 1555 1552
1577 1576 1575 1574 1573 1572 1571 1570 1568 1566 1564 1561 1559 1557 1558 1556 1554 1554 1568 1571 1569 1569 1569 1570 1571 1571 1573 1573 1571 1572 1569 1566 1564 1564 1564 1566 1572 1559 1555 1554 1552 1556 1557 1560 1562 1563 1557
1574 1573 1573 1571 1571 1570 1569 1568 1566 1565 1563 1561 1559 1559 1559 1556 1557 1563 1569 1568 1568 1568 1568 1569 1570 1571 1572 1571 1572 1570 1569 1566 1566 1565 1566 1568 1573 1572 1556 1551 1552 1552 1553 1556 1558 1561 1563
1569 1569 1570 1569 1569 1568 1568 1567 1566 1565 1563 1561 1560 1560 1560 1557 1566 1570 1569 1569 1568 1568 1569 1569 1570 1571 1571 1571 1572 1569 1566 1563 1564 1564 1564 1566 1572 1574 1552 1553 1551 1551 1551 1551 1556 1557 1555
1565 1565 1566 1566 1566 1566 1566 1566 1565 1564 1563 1562 1561 1562 1561 1561 1565 1568 1570 1571 1570 1569 1569 1569 1570 1570 1571 1571 1570 1569 1566 1563 1563 1562 1562 1563 1568 1566 1560 1550 1552 1548 1547 1548 1548 1553 1544
1561 1562 1563 1564 1564 1565 1564 1565 1564 1564 1563 1563 1563 1566 1566 1569 1567 1569 1570 1570 1570 1569 1568 1568 1570 1570 1569 1570 1569 1569 1565 1563 1560 1559 1560 1561 1561 1562 1554 1554 1551 1542 1539 1543 1545 1531 1540
1557 1559 1560 1561 1562 1562 1562 1563 1563 1563 1562 1563 1564 1565 1567 1568 1568 1569 1570 1570 1570 1569 1568 1567 1568 1568 1568 1568 1564 1561 1561 1562 1560 1559 1559 1560 1555 1556 1549 1543 1546 1540 1530 1529 1528 1525 1525
1553 1555 1557 1558 1559 1560 1560 1561 1560 1561 1561 1562 1563 1564 1565 1568 1568 1569 1569 1568 1568 1568 1566 1565 1566 1568 1566 1562 1559 1557 1555 1553 1552 1554 1556 1557 1556 1553 1544 1544 1545 1533 1513 1516 1516 1517 1515
1549 1550 1553 1554 1556 1557 1557 1558 1558 1559 1560 1562 1563 1564 1565 1567 1568 1568 1568 1568 1567 1568 1567 1564 1563 1563 1560 1557 1556 1552 1547 1546 1547 1548 1551 1553 1556 1555 1546 1544 1543 1507 1510 1511 1512 1508 1507
1544 1546 1548 1551 1552 1553 1554 1555 1555 1556 1558 1559 1561 1562 1564 1563 1562 1562 1563 1563 1563 1563 1563 1560 1555 1555 1555 1555 1555 1550 1548 1545 1547 1549 1548 1549 1553 1556 1553 1553 1524 1499 1506 1507 1508 1500 1493
1539 1541 1544 1546 1547 1549 1550 1551 1551 1552 1554 1555 1558 1560 1560 1561 1557 1557 1557 1558 1560 1559 1559 1554 1553 1553 1554 1553 1553 1550 1543 1540 1544 1546 1549 1549 1551 1553 1557 1549 1531 1499 1507 1509 1510 1505 1494
1534 1536 1538 1541 1542 1543 1545 1546 1547 1548 1549 1551 1552 1555 1557 1554 1552 1554 1555 1554 1555 1554 1555 1553 1553 1554 1554 1553 1554 1549 1543 1540 1541 1542 1549 1552 1556 1547 1543 1537 1523 1503 1505 1506 1509 1492 1494
1529 1531 1532 1535 1536 1536 1539 1540 1541 1543 1544 1546 1549 1552 1553 1548 1547 1549 1550 1550 1550 1550 1550 1551 1550 1550 1553 1554 1550 1545 1542 1538 1541 1532 1533 1533 1541 1544 1543 1536 1521 1496 1505 1503 1488 1487 1490
1520 1525 1525 1527 1530 1530 1532 1534 1535 1537 1539 1541 1544 1546 1548 1547 1541 1541 1542 1541 1543 1543 1545 1543 1543 1542 1540 1547 1543 1542 1538 1536 1529 1516 1524 1523 1517 1518 1521 1502 1488 1487 1483 1483 1485 1484 1485